Hourly Data Report for October 04, 2015

All times are specified in Local Standard Time (LST). Add 1 hour to adjust for Daylight Saving Time where and when it is observed.

PENTICTON A
BRITISH COLUMBIA

49°27'45.000" N
119°36'08.000" W
344.40 m
1126146
71889
YYF

Download Data

Hourly Data (October 2015)
Hourly Data Report for October 4, 2015
Temp Definition
°C
Dew Point Temp Definition
°C
Rel Hum Definition
%
Wind Dir Definition
10's deg

Wind Spd Definition
km/h
Visibility Definition
km
Stn Press Definition
kPa
Hmdx Definition


Wind Chill Definition


Weather Definition


TIME
00:00 Legend Double Dagger 7.9 2.8 70 35 14 24.1 98.10     LegendNANA
01:00 Legend Double Dagger 6.1 2.2 76 35 14 24.1 98.10     Mainly Clear
02:00 Legend Double Dagger 5.4 1.7 77 1 14 24.1 98.06     LegendNANA
03:00 Legend Double Dagger 4.8 1.7 80 35 10 24.1 98.08     LegendNANA
04:00 Legend Double Dagger 5.4 1.9 78 36 13 24.1 98.08     Mainly Clear
05:00 Legend Double Dagger 4.3 1.5 82 36 12 24.1 98.08     LegendNANA
06:00 Legend Double Dagger 3.9 1.5 84 36 12 24.1 98.09     LegendNANA
07:00 Legend Double Dagger 4.9 2.6 85 34 9 24.1 98.06     Mainly Clear
08:00 Legend Double Dagger 9.6 3.6 66 36 8 24.1 98.05     LegendNANA
09:00 Legend Double Dagger 11.0 4.3 63 36 14 24.1 98.04     LegendNANA
10:00 Legend Double Dagger 12.2 4.7 60 35 12 24.1 97.93     Mainly Clear
11:00 Legend Double Dagger 13.5 3.9 52 36 13 24.1 97.79     LegendNANA
12:00 Legend Double Dagger 14.3 4.9 53 36 17 24.1 97.71     LegendNANA
13:00 Legend Double Dagger 16.3 4.1 44 36 22 24.1 97.62     Mainly Clear
14:00 Legend Double Dagger 16.4 4.9 46 1 22 24.1 97.55     LegendNANA
15:00 Legend Double Dagger 16.4 5.5 48 1 22 24.1 97.48     LegendNANA
16:00 Legend Double Dagger 15.8 6.1 52 36 24 24.1 97.41     Clear
17:00 Legend Double Dagger 14.4 6.1 57 36 20 24.1 97.37     LegendNANA
18:00 Legend Double Dagger 10.4 4.8 68 34 8 24.1 97.43     LegendNANA
19:00 Legend Double Dagger 9.5 4.3 70 35 10 24.1 97.47     Clear
20:00 Legend Double Dagger 10.4 4.6 67 1 14 24.1 97.52     LegendNANA
21:00 Legend Double Dagger 9.4 4.2 70 35 16 24.1 97.54     LegendNANA
22:00 Legend Double Dagger 8.4 3.9 73 35 16 24.1 97.54     Clear
23:00 Legend Double Dagger 7.5 3.6 76 36 13 24.1 97.51     LegendNANA

Notes on Data Quality.

Legend

  • E = Estimated
  • M = Missing
  • NA = Not Available
  • ‡ = Partner data that is not subject to review by the National Climate Archives
Date modified: